DLH48 LPPT-EDDF

Flight info

Callsign DLH48
Flight time N/A
Altitude 43000
Route IXIDA1N IXIDA DCT TOSDI DCT ZMR DCT NUBLO DCT RONSI DCT DELOG DCT PEXOD DCT DIDIG DCT TIRAV DCT ERJAZ DCT PIWIZ DCT TSU UN858 OQQAL DCT RANUX DCT VALEK DCT LIPNI/N0498F410 DCT LIMGO/N0493F350 Z111 TUTOV/N0447F230 Z111 RAMOB IMCOM2C
Aircraft B789/H-V/N

Departure

Time 2026-05-07 19:24
Airport Lisbon Humberto Delgado Airport (LPPT)

Arrival

Time N/A
Airport Frankfurt Main Airport (EDDF)
Time Latitude Longitude Altitude Speed Heading
2026-05-07 18:43 38.77488 -9.13179 352 ft 0 kts 81°
2026-05-07 19:02 38.77486 -9.13188 362 ft 2 kts 82°
2026-05-07 19:03 38.77484 -9.13214 355 ft 3 kts 85°
2026-05-07 19:03 38.77483 -9.13239 360 ft 3 kts 91°
2026-05-07 19:03 38.77484 -9.13265 360 ft 3 kts 99°
2026-05-07 19:03 38.77486 -9.13281 359 ft 0 kts 103°
2026-05-07 19:06 38.77486 -9.13279 361 ft 0 kts 107°
2026-05-07 19:06 38.77484 -9.13276 361 ft 0 kts 117°
2026-05-07 19:07 38.77481 -9.13272 361 ft 1 kts 132°
2026-05-07 19:07 38.77475 -9.13268 362 ft 1 kts 152°
2026-05-07 19:07 38.77463 -9.13266 361 ft 3 kts 176°
2026-05-07 19:07 38.77424 -9.13269 358 ft 8 kts 184°
2026-05-07 19:08 38.77363 -9.13265 360 ft 8 kts 180°
2026-05-07 19:08 38.77337 -9.13283 361 ft 3 kts 230°
2026-05-07 19:08 38.77325 -9.13329 358 ft 8 kts 258°
2026-05-07 19:08 38.77315 -9.13389 356 ft 0 kts 257°
2026-05-07 19:11 38.77314 -9.13395 355 ft 3 kts 257°
2026-05-07 19:11 38.77305 -9.13442 360 ft 7 kts 257°
2026-05-07 19:11 38.77294 -9.13515 359 ft 10 kts 259°
2026-05-07 19:12 38.77278 -9.13611 355 ft 13 kts 257°
2026-05-07 19:12 38.77259 -9.13730 359 ft 14 kts 258°
2026-05-07 19:12 38.77229 -9.13846 359 ft 10 kts 227°
2026-05-07 19:12 38.77175 -9.13878 357 ft 9 kts 201°
2026-05-07 19:13 38.77106 -9.13913 360 ft 12 kts 202°
2026-05-07 19:13 38.77022 -9.13957 357 ft 14 kts 202°
2026-05-07 19:13 38.76925 -9.14008 359 ft 16 kts 200°
2026-05-07 19:13 38.76817 -9.14064 359 ft 17 kts 203°
2026-05-07 19:14 38.76707 -9.14124 359 ft 16 kts 204°
2026-05-07 19:14 38.76623 -9.14172 359 ft 10 kts 208°
2026-05-07 19:14 38.76606 -9.14189 358 ft 0 kts 227°
2026-05-07 19:15 38.76601 -9.14199 351 ft 0 kts 238°
2026-05-07 19:17 38.76598 -9.14207 350 ft 2 kts 248°
2026-05-07 19:17 38.76597 -9.14236 351 ft 4 kts 281°
2026-05-07 19:18 38.76597 -9.14237 351 ft 0 kts 282°
2026-05-07 19:21 38.76602 -9.14255 356 ft 0 kts 287°
2026-05-07 19:22 38.76602 -9.14257 356 ft 1 kts 287°
2026-05-07 19:22 38.76614 -9.14294 349 ft 8 kts 294°
2026-05-07 19:22 38.76655 -9.14363 349 ft 9 kts 340°
2026-05-07 19:23 38.76708 -9.14356 354 ft 7 kts 22°
2026-05-07 19:23 38.76768 -9.14323 353 ft 19 kts 23°
2026-05-07 19:23 38.77092 -9.14150 357 ft 86 kts 22°
2026-05-07 19:23 38.77870 -9.13735 364 ft 152 kts 20°
2026-05-07 19:24 38.78887 -9.13121 989 ft 165 kts 25°
2026-05-07 19:24 38.79855 -9.12400 2086 ft 162 kts 26°
2026-05-07 19:24 38.80911 -9.11653 2824 ft 187 kts 24°
2026-05-07 19:24 38.82140 -9.10807 3617 ft 213 kts 25°
2026-05-07 19:25 38.83519 -9.09831 4419 ft 241 kts 26°
2026-05-07 19:25 38.85052 -9.08736 5300 ft 270 kts 28°
2026-05-07 19:25 38.86751 -9.07525 6445 ft 283 kts 29°
2026-05-07 19:25 38.88495 -9.06284 7715 ft 290 kts 30°
2026-05-07 19:26 38.90182 -9.04834 8990 ft 294 kts 46°
2026-05-07 19:26 38.91663 -9.02991 10240 ft 301 kts 44°
2026-05-07 19:26 38.93310 -9.01141 10942 ft 328 kts 43°
2026-05-07 19:26 38.95099 -8.99110 11545 ft 356 kts 44°
2026-05-07 19:27 38.96972 -8.96909 12074 ft 382 kts 44°
2026-05-07 19:27 38.98981 -8.94543 12917 ft 395 kts 44°
2026-05-07 19:27 39.01035 -8.92150 14027 ft 402 kts 44°
2026-05-07 19:27 39.03132 -8.89711 15054 ft 408 kts 44°
2026-05-07 19:28 39.05264 -8.87216 15948 ft 416 kts 44°
2026-05-07 19:28 39.07394 -8.84717 16861 ft 423 kts 44°
2026-05-07 19:28 39.09596 -8.82136 17748 ft 431 kts 44°
2026-05-07 19:28 39.11831 -8.79517 18559 ft 438 kts 44°
2026-05-07 19:29 39.14103 -8.76851 19322 ft 444 kts 44°
2026-05-07 19:29 39.16399 -8.74146 20061 ft 450 kts 45°
2026-05-07 19:29 39.18530 -8.71155 20687 ft 455 kts 50°
2026-05-07 19:29 39.20621 -8.68081 21495 ft 458 kts 50°
2026-05-07 19:30 39.22754 -8.64949 22118 ft 466 kts 49°
2026-05-07 19:30 39.24883 -8.61835 22743 ft 472 kts 49°
2026-05-07 19:30 39.27070 -8.58632 23356 ft 478 kts 49°
2026-05-07 19:30 39.29280 -8.55383 23846 ft 485 kts 49°
2026-05-07 19:31 39.31525 -8.52079 23918 ft 491 kts 49°
2026-05-07 19:31 39.33767 -8.48779 23917 ft 486 kts 49°
2026-05-07 19:31 39.35997 -8.45495 23915 ft 486 kts 49°
2026-05-07 19:31 39.38203 -8.42240 23913 ft 485 kts 49°
2026-05-07 19:32 39.40434 -8.38945 23911 ft 485 kts 49°
2026-05-07 19:32 39.42663 -8.35650 23909 ft 486 kts 49°
2026-05-07 19:32 39.44888 -8.32358 23909 ft 485 kts 49°
2026-05-07 19:32 39.47108 -8.29070 23907 ft 486 kts 49°
2026-05-07 19:33 39.49340 -8.25759 23912 ft 487 kts 49°
2026-05-07 19:33 39.51575 -8.22441 24393 ft 488 kts 49°
2026-05-07 19:33 39.53779 -8.19165 24997 ft 490 kts 49°
2026-05-07 19:33 39.56030 -8.15818 25520 ft 494 kts 48°
2026-05-07 19:34 39.58301 -8.12436 26028 ft 498 kts 48°
2026-05-07 19:34 39.60591 -8.09022 26540 ft 501 kts 48°
2026-05-07 19:34 39.62886 -8.05595 27023 ft 504 kts 48°
2026-05-07 19:34 39.65164 -8.02199 27459 ft 507 kts 47°
2026-05-07 19:35 39.67664 -7.98938 27816 ft 510 kts 43°
2026-05-07 19:35 39.70228 -7.95733 28288 ft 513 kts 42°
2026-05-07 19:35 39.72816 -7.92497 28711 ft 516 kts 43°
2026-05-07 19:35 39.75398 -7.89230 29117 ft 519 kts 43°
2026-05-07 19:36 39.77990 -7.85942 29524 ft 522 kts 43°
2026-05-07 19:36 39.80601 -7.82644 29883 ft 525 kts 43°
2026-05-07 19:36 39.83228 -7.79330 30172 ft 528 kts 43°
2026-05-07 19:36 39.85838 -7.76024 30449 ft 530 kts 43°
2026-05-07 19:37 39.88494 -7.72649 30743 ft 533 kts 43°
2026-05-07 19:37 39.91163 -7.69260 30985 ft 536 kts 42°
2026-05-07 19:37 39.93840 -7.65860 31263 ft 538 kts 42°
2026-05-07 19:37 39.96526 -7.62443 31583 ft 538 kts 42°
2026-05-07 19:38 39.99200 -7.59032 31950 ft 538 kts 42°
2026-05-07 19:38 40.01842 -7.55661 32396 ft 536 kts 42°
2026-05-07 19:38 40.04501 -7.52268 32848 ft 533 kts 41°
2026-05-07 19:38 40.07152 -7.48881 33189 ft 534 kts 41°
2026-05-07 19:39 40.09804 -7.45486 33500 ft 534 kts 41°
2026-05-07 19:39 40.12466 -7.42073 33836 ft 534 kts 41°
2026-05-07 19:39 40.15132 -7.38653 34116 ft 534 kts 41°
2026-05-07 19:39 40.17754 -7.35285 34388 ft 535 kts 41°
2026-05-07 19:40 40.20410 -7.31870 34649 ft 536 kts 41°
2026-05-07 19:40 40.23072 -7.28444 34897 ft 536 kts 41°
2026-05-07 19:40 40.25732 -7.25014 35191 ft 537 kts 41°
2026-05-07 19:40 40.28390 -7.21583 35566 ft 535 kts 41°
2026-05-07 19:41 40.31044 -7.18155 35838 ft 535 kts 41°
2026-05-07 19:41 40.33705 -7.14715 36102 ft 536 kts 41°
2026-05-07 19:41 40.36356 -7.11283 36364 ft 536 kts 41°
2026-05-07 19:41 40.39012 -7.07838 36601 ft 537 kts 41°
2026-05-07 19:42 40.41671 -7.04386 36841 ft 538 kts 41°
2026-05-07 19:42 40.44293 -7.00979 37085 ft 538 kts 41°
2026-05-07 19:42 40.46960 -6.97509 37320 ft 539 kts 41°
2026-05-07 19:42 40.49623 -6.94041 37561 ft 539 kts 41°
2026-05-07 19:43 40.52284 -6.90570 37805 ft 540 kts 41°
2026-05-07 19:43 40.54952 -6.87088 38015 ft 540 kts 41°
2026-05-07 19:43 40.57630 -6.83586 38244 ft 541 kts 41°
2026-05-07 19:43 40.60291 -6.80101 38649 ft 537 kts 41°
2026-05-07 19:44 40.62938 -6.76634 38859 ft 537 kts 41°
2026-05-07 19:44 40.65586 -6.73162 39064 ft 537 kts 41°
2026-05-07 19:44 40.68237 -6.69680 39286 ft 536 kts 41°
2026-05-07 19:44 40.70876 -6.66208 39500 ft 536 kts 41°
2026-05-07 19:45 40.73485 -6.62772 39777 ft 534 kts 41°
2026-05-07 19:45 40.76114 -6.59308 40058 ft 533 kts 41°
2026-05-07 19:45 40.78733 -6.55853 40266 ft 532 kts 41°
2026-05-07 19:45 40.81351 -6.52394 40488 ft 532 kts 42°
2026-05-07 19:46 40.83959 -6.48943 40691 ft 532 kts 42°
2026-05-07 19:46 40.86577 -6.45476 40929 ft 531 kts 42°
2026-05-07 19:46 40.89179 -6.42025 41271 ft 528 kts 42°
2026-05-07 19:46 40.91775 -6.38580 41478 ft 528 kts 42°
2026-05-07 19:47 40.94338 -6.35175 41685 ft 528 kts 42°
2026-05-07 19:47 40.96930 -6.31727 41931 ft 527 kts 42°
2026-05-07 19:47 40.99530 -6.28313 42234 ft 523 kts 38°
2026-05-07 19:47 41.02240 -6.25115 42395 ft 523 kts 39°
2026-05-07 19:48 41.04953 -6.21879 42598 ft 523 kts 39°
2026-05-07 19:48 41.07653 -6.18640 42856 ft 522 kts 39°
2026-05-07 19:48 41.13077 -6.12170 42886 ft 525 kts 39°
2026-05-07 19:49 41.18474 -6.05700 42884 ft 520 kts 39°
2026-05-07 19:49 41.23791 -5.99320 42892 ft 517 kts 39°
2026-05-07 19:50 41.29117 -5.92912 42890 ft 516 kts 39°
2026-05-07 19:50 41.34451 -5.86479 42893 ft 517 kts 40°
2026-05-07 19:51 41.39762 -5.80059 42901 ft 518 kts 40°
2026-05-07 19:51 41.45104 -5.73587 42911 ft 519 kts 40°
2026-05-07 19:52 41.50465 -5.67078 42911 ft 520 kts 39°
2026-05-07 19:52 41.53318 -5.64161 42929 ft 515 kts 27°
2026-05-07 19:52 41.56461 -5.62030 42938 ft 510 kts 19°
2026-05-07 19:53 41.63033 -5.58330 42919 ft 511 kts 19°
2026-05-07 19:53 41.69604 -5.54625 42917 ft 510 kts 19°
2026-05-07 19:54 41.76106 -5.50942 42910 ft 509 kts 19°
2026-05-07 19:54 41.82638 -5.47243 42919 ft 509 kts 19°
2026-05-07 19:55 41.89168 -5.43530 42922 ft 508 kts 19°
2026-05-07 19:55 41.95643 -5.39844 42917 ft 509 kts 19°
2026-05-07 19:56 42.02172 -5.36117 42910 ft 510 kts 19°
2026-05-07 19:56 42.08710 -5.32377 42910 ft 510 kts 19°
2026-05-07 19:57 42.15191 -5.28658 42908 ft 502 kts 19°
2026-05-07 19:57 42.21605 -5.24977 42901 ft 503 kts 19°
2026-05-07 19:58 42.28054 -5.21261 42905 ft 504 kts 19°
2026-05-07 19:58 42.33414 -5.18168 42920 ft 504 kts 20°
2026-05-07 19:59 42.39870 -5.14435 42925 ft 504 kts 20°
2026-05-07 19:59 42.47364 -5.10091 42928 ft 503 kts 20°
2026-05-07 20:00 42.53798 -5.06352 42928 ft 503 kts 20°
2026-05-07 20:00 42.59157 -5.03232 42929 ft 503 kts 20°
2026-05-07 20:01 42.65605 -4.99469 42941 ft 504 kts 20°
2026-05-07 20:01 42.72057 -4.95696 42943 ft 504 kts 20°
2026-05-07 20:02 42.78512 -4.91912 42933 ft 505 kts 20°
2026-05-07 20:02 42.84964 -4.88122 42933 ft 505 kts 20°
2026-05-07 20:03 42.91379 -4.84344 42939 ft 505 kts 20°
2026-05-07 20:03 42.97826 -4.80539 42948 ft 505 kts 20°
2026-05-07 20:04 43.04283 -4.76720 42946 ft 504 kts 20°
2026-05-07 20:04 43.10727 -4.72900 42937 ft 504 kts 20°
2026-05-07 20:05 43.17168 -4.69072 42938 ft 505 kts 21°
2026-05-07 20:05 43.23562 -4.65263 42935 ft 505 kts 21°
2026-05-07 20:06 43.30008 -4.61415 42924 ft 504 kts 20°
2026-05-07 20:06 43.36448 -4.57561 42912 ft 504 kts 21°
2026-05-07 20:07 43.42877 -4.53705 42900 ft 504 kts 21°
2026-05-07 20:07 43.49261 -4.49867 42909 ft 504 kts 21°
2026-05-07 20:08 43.55701 -4.45987 42902 ft 505 kts 21°
2026-05-07 20:08 43.62138 -4.42098 42904 ft 506 kts 21°
2026-05-07 20:09 43.68602 -4.38185 42906 ft 506 kts 21°
2026-05-07 20:10 43.78257 -4.32322 42906 ft 507 kts 21°
2026-05-07 20:10 43.84690 -4.28402 42890 ft 497 kts 21°
2026-05-07 20:11 43.91011 -4.24547 42894 ft 500 kts 21°
2026-05-07 20:11 43.97429 -4.20619 42910 ft 507 kts 21°
2026-05-07 20:12 44.03872 -4.16666 42917 ft 505 kts 21°
2026-05-07 20:12 44.10263 -4.12738 42913 ft 504 kts 21°
2026-05-07 20:13 44.16660 -4.08795 42921 ft 502 kts 21°
2026-05-07 20:13 44.23042 -4.04853 42916 ft 502 kts 22°
2026-05-07 20:14 44.29443 -4.00890 42918 ft 503 kts 22°
2026-05-07 20:14 44.35587 -3.96176 42934 ft 506 kts 33°
2026-05-07 20:15 44.41381 -3.90572 42929 ft 506 kts 33°
2026-05-07 20:15 44.47150 -3.85016 42932 ft 505 kts 33°
2026-05-07 20:16 44.52936 -3.79413 42923 ft 506 kts 33°
2026-05-07 20:16 44.58738 -3.73787 42934 ft 507 kts 33°
2026-05-07 20:17 44.64555 -3.68131 42938 ft 508 kts 33°
2026-05-07 20:17 44.70322 -3.62509 42948 ft 507 kts 33°
2026-05-07 20:18 44.76127 -3.56837 42941 ft 507 kts 33°